EW9842 Weather Reports


Display with metric or nautical units.
time (UTC)temp
F
wind
direction
speed
MPH
gust
MPH
rain 1hr
in
rain 24hr
in
rain mn
in
humidity
%
barometer
mb
20260904151533 49 225 0.0 2.0 0.00 0.02 0.02 98 1016.2
20260904150035 48 152 0.0 2.0 0.00 0.02 0.02 98 1016.1
20260904144544 47 135 0.0 2.0 0.00 0.02 0.02 98 1016.0
20260904143035 47 137 0.0 3.0 0.00 0.02 0.02 98 1015.9
20260904140037 46 157 1.0 3.0 0.00 0.02 0.02 98 1015.6
20260904133036 46 157 1.0 2.0 0.01 0.02 0.02 98 1015.4
20260904131653 46 149 1.0 3.0 0.01 0.02 0.02 98 1015.3
20260904124532 46 135 1.0 2.0 0.00 0.01 0.01 98 1015.1
20260904120033 46 157 1.0 2.0 0.01 0.01 0.01 98 1015.0
20260904114535 47 157 1.0 3.0 0.01 0.01 0.01 98 1014.9
20260904113036 47 135 0.0 2.0 0.01 0.01 0.01 98 1014.7
20260904111532 47 152 0.0 2.0 0.01 0.01 0.00 98 1014.6
20260904110149 47 157 0.0 2.0 0.00 0.00 0.00 98 1014.5
20260904104532 47 157 0.0 0.0 0.00 0.00 0.00 98 1014.3
20260904103032 47 157 0.0 1.0 0.00 0.00 0.00 98 1014.2
20260904101532 47 141 0.0 2.0 0.00 0.00 0.00 98 1014.2
20260904100031 47 150 1.0 3.0 0.00 0.00 0.00 98 1014.0
20260904094537 47 135 0.0 3.0 0.00 0.00 0.00 98 1013.9
20260904093035 46 155 1.0 4.0 0.00 0.00 0.00 98 1013.9
20260904091530 46 164 1.0 4.0 0.00 0.00 0.00 98 1013.9
20260904090153 46 146 2.0 4.0 0.00 0.00 0.00 98 1013.9
20260904083036 46 151 2.0 4.0 0.00 0.00 0.00 97 1013.8
20260904081536 46 160 2.0 4.0 0.00 0.00 0.00 97 1013.8
20260904080109 47 168 1.0 3.0 0.00 0.00 0.00 97 1013.8
20260904074537 47 151 2.0 4.0 0.00 0.00 0.00 97 1013.9
20260904073033 47 157 1.0 4.0 0.00 0.00 0.00 97 1013.8
20260904071531 47 136 2.0 3.0 0.00 0.00 0.00 97 1013.8
20260904070036 47 176 2.0 4.0 0.00 0.00 0.00 97 1013.8
20260904064534 47 150 0.0 3.0 0.00 0.00 0.00 97 1013.7
20260904063032 47 138 1.0 4.0 0.00 0.00 0.00 97 1013.7
20260904061536 47 196 2.0 3.0 0.00 0.00 0.00 96 1013.7
20260904060033 47 156 1.0 4.0 0.00 0.00 0.00 96 1013.7
20260904054532 48 135 0.0 3.0 0.00 0.00 0.00 96 1013.6
20260904053037 48 173 1.0 3.0 0.00 0.00 0.00 96 1013.7
20260904051545 49 176 0.0 3.0 0.00 0.00 0.00 96 1013.7
20260904050108 49 213 2.0 4.0 0.00 0.00 0.00 95 1013.8
20260904044534 49 141 1.0 4.0 0.00 0.00 0.00 95 1013.8
20260904043041 49 136 0.0 1.0 0.00 0.00 0.00 95 1013.9
20260904041536 50 225 0.0 1.0 0.00 0.00 0.00 95 1014.0
20260904040035 50 225 0.0 3.0 0.00 0.00 0.00 95 1013.9
20260904034534 50 215 1.0 4.0 0.00 0.00 0.00 95 1013.7
20260904031610 50 164 2.0 4.0 0.00 0.00 0.00 93 1013.6
20260904024610 50 142 2.0 4.0 0.00 0.01 0.00 91 1013.4
20260904023034 52 195 1.0 3.0 0.00 0.03 0.00 90 1013.3
20260904020035 53 286 1.0 3.0 0.00 0.10 0.00 87 1013.2
20260904014641 54 294 2.0 5.0 0.00 0.13 0.00 86 1013.1
20260904011536 54 291 3.0 8.0 0.00 0.14 0.00 86 1013.1
20260904010110 54 285 3.0 6.0 0.00 0.16 0.00 84 1013.1
20260904004535 55 286 3.0 8.0 0.00 0.18 0.00 81 1013.0
20260904000037 57 345 2.0 7.0 0.00 0.23 0.00 74 1012.9
20260903234546 57 343 5.0 11.0 0.00 0.26 0.00 75 1013.0
20260903234535 56 5 4.0 9.0 0.00 0.26 0.00 77 1013.2
20260903224611 60 321 5.0 10.0 0.00 0.27 0.00 65 1013.1
20260903223029 63 312 5.0 12.0 0.00 0.28 0.00 62 1013.1
20260903221610 62 290 3.0 8.0 0.00 0.28 0.00 66 1013.0
20260903220035 61 298 1.0 5.0 0.00 0.28 0.00 67 1013.1
20260903214534 61 286 3.0 6.0 0.00 0.31 0.00 68 1013.1
20260903211611 60 281 4.0 10.0 0.00 0.34 0.00 69 1013.2
20260903210036 62 317 5.0 9.0 0.00 0.35 0.00 67 1013.3
20260903203033 59 296 6.0 13.0 0.00 0.39 0.00 73 1013.3
20260903201535 58 291 5.0 10.0 0.00 0.41 0.00 75 1013.5
20260903200035 59 290 4.0 10.0 0.00 0.41 0.00 72 1013.5
20260903194535 60 292 5.0 13.0 0.00 0.41 0.00 72 1013.6
20260903190035 59 350 4.0 8.0 0.00 0.41 0.00 73 1014.1
20260903183034 59 338 3.0 8.0 0.00 0.41 0.00 70 1014.1
20260903181538 59 263 3.0 8.0 0.00 0.41 0.00 71 1014.1
20260903180037 55 335 3.0 9.0 0.00 0.41 0.00 82 1014.2
20260903173031 54 318 3.0 8.0 0.00 0.41 0.00 87 1014.2
20260903171533 53 326 1.0 5.0 0.00 0.41 0.00 91 1014.3
20260903170033 51 11 2.0 5.0 0.00 0.41 0.00 93 1014.2
20260903164534 50 304 1.0 6.0 0.00 0.41 0.00 95 1014.3
20260903163033 49 283 0.0 4.0 0.00 0.41 0.00 96 1014.1
20260903161533 49 287 0.0 2.0 0.00 0.41 0.00 96 1014.2
20260903160043 49 337 0.0 4.0 0.00 0.41 0.00 97 1014.3
20260903153035 47 243 1.0 6.0 0.00 0.41 0.00 98 1014.2